Cairo, Egypt

1:23 PM EET on April 26, 2018 (GMT +0200)
Cairo International Airport

Weather History for HECA - January, 2013

Change the Weather History Date:

Wednesday, January 9, 2013

  Actual Average Record
Temperature  
Mean Temperature 47 °F -  
Max Temperature 52 °F 65 °F 71 °F (2018)
Min Temperature 42 °F 48 °F 42 °F (2013)
Degree Days  
Heating Degree Days 18    
Moisture  
Dew Point 42 °F    
Average Humidity 77    
Maximum Humidity 93    
Minimum Humidity 42    
Precipitation  
Precipitation 0.31 in 0.01 in - ()
Sea Level Pressure  
Sea Level Pressure 30.05 in    
Wind  
Wind Speed 8 mph ()    
Max Wind Speed 15 mph    
Max Gust Speed -    
Visibility 6.0 miles    
Events Rain    
Averages and records for this station are not official NWS values.
T = Trace of Precipitation, MM = Missing Value Source: Averaged Metar Reports

Daily Weather History Graph

Daily Weather History Graph

Search for Another Location

Airport or City:

Astronomy

Jan. 09, 2013 Rise Set
Actual Time 6:51 AM EET 5:11 PM EET
Civil Twilight 6:25 AM EET 5:37 PM EET
Nautical Twilight 5:55 AM EET 6:07 PM EET
Astronomical Twilight 5:26 AM EET 6:36 PM EET
Moon 4:09 AM EET (1/9) 2:52 PM EET (1/9)
Length of Visible Light 11h 12m
Length of Day
10h 19m
Waning Crescent, 8% of the Moon is Illuminated
Jan 9
Waning Crescent
Jan 11
New
Jan 19
First Quarter
Jan 27
Full
Feb 3
Last Quarter

Hourly Weather History & Observations

Time (EET) Temp. Windchill Dew Point Humidity Pressure Visibility Wind Dir Wind Speed Gust Speed Precip Events Conditions
12:00 AM 50.0 °F - 46.4 °F 87% 29.95 in 6.2 mi NNW 12.7 mph - N/A   Mostly Cloudy
12:30 AM 48.2 °F - 46.4 °F 93% 29.95 in 5.0 mi NW 6.9 mph - N/A Rain Light Rain
1:00 AM 48.2 °F - 46.4 °F 93% 29.95 in 6.2 mi North 5.8 mph - N/A   Mostly Cloudy
1:30 AM 48.2 °F - 46.4 °F 93% 29.95 in 6.2 mi Calm Calm - N/A   Mostly Cloudy
2:00 AM 49 °F - 46 °F 87% 29.98 in 5 mi NNW 2.3 mph - - Rain Light Rain
2:00 AM 48.2 °F - 46.4 °F 93% 29.95 in 5.0 mi NNW 2.3 mph - N/A Rain Rain
2:30 AM 48.2 °F - 46.4 °F 93% 29.95 in 6.2 mi NNW 2.3 mph - N/A   Mostly Cloudy
3:00 AM 48.2 °F - 46.4 °F 93% 29.95 in 6.2 mi SW 4.6 mph - N/A   Mostly Cloudy
3:30 AM 48.2 °F - 46.4 °F 93% 29.98 in 3.7 mi West 9.2 mph - N/A Rain Light Rain
4:00 AM 46.4 °F 41.5 °F 44.6 °F 93% 29.98 in 3.7 mi WNW 10.4 mph - N/A Rain Light Rain
4:30 AM 48.2 °F - 44.6 °F 87% 29.98 in 6.2 mi West 5.8 mph - N/A   Mostly Cloudy
5:00 AM 48.2 °F - 46.4 °F 93% 29.98 in 6.2 mi West 5.8 mph - N/A   Mostly Cloudy
5:30 AM 46.4 °F 40.7 °F 44.6 °F 93% 29.98 in 6.2 mi WNW 12.7 mph - N/A   Mostly Cloudy
6:00 AM 48.2 °F - 44.6 °F 87% 29.98 in 6.2 mi West 6.9 mph - N/A   Mostly Cloudy
6:30 AM 48.2 °F - 42.8 °F 82% 30.01 in 6.2 mi West 9.2 mph - N/A   Mostly Cloudy
7:00 AM 48.2 °F - 42.8 °F 82% 30.01 in 6.2 mi WSW 8.1 mph - N/A   Mostly Cloudy
7:30 AM 48.2 °F - 42.8 °F 82% 30.04 in 6.2 mi WSW 11.5 mph - N/A   Mostly Cloudy
8:00 AM 49 °F - 42 °F 71% 30.05 in 6 mi WSW 12.7 mph - -   Partly Cloudy
8:00 AM 48.2 °F - 42.8 °F 82% 30.04 in 6.2 mi WSW 12.7 mph - N/A   Mostly Cloudy
8:30 AM 50.0 °F - 42.8 °F 76% 30.04 in 6.2 mi WSW 12.7 mph - N/A   Mostly Cloudy
9:00 AM 50.0 °F - 42.8 °F 76% 30.06 in 6.2 mi WSW 12.7 mph - N/A   Mostly Cloudy
9:30 AM 51.8 °F - 41.0 °F 67% 30.06 in 6.2 mi West 12.7 mph - N/A   Scattered Clouds
10:00 AM 51.8 °F - 41.0 °F 67% 30.06 in 6.2 mi West 15.0 mph - N/A   Scattered Clouds
10:30 AM 51.8 °F - 41.0 °F 67% 30.06 in 6.2 mi West 13.8 mph - N/A   Scattered Clouds
11:00 AM 46.4 °F 41.1 °F 41.0 °F 81% 30.06 in 6.2 mi WNW 11.5 mph - N/A   Scattered Clouds
11:30 AM 50.0 °F - 42.8 °F 76% 30.06 in 6.2 mi WNW 13.8 mph - N/A   Scattered Clouds
12:00 PM 50.0 °F - 41.0 °F 71% 30.06 in 6.2 mi WNW 13.8 mph - N/A   Scattered Clouds
12:30 PM 51.8 °F - 39.2 °F 62% 30.06 in 6.2 mi West 11.5 mph - N/A   Scattered Clouds
1:00 PM 51.8 °F - 37.4 °F 58% 30.04 in 6.2 mi West 13.8 mph - N/A   Scattered Clouds
1:30 PM 51.8 °F - 37.4 °F 58% 30.04 in 6.2 mi West 12.7 mph - N/A   Scattered Clouds
2:00 PM 53 °F - 37 °F 42% 30.07 in 6 mi West 13.8 mph - -   Partly Cloudy
2:00 PM 51.8 °F - 37.4 °F 58% 30.04 in 6.2 mi West 13.8 mph - N/A   Mostly Cloudy
2:30 PM 50.0 °F - 41.0 °F 71% 30.06 in 6.2 mi West 15.0 mph - N/A   Mostly Cloudy
3:00 PM 50.0 °F - 41.0 °F 71% 30.06 in 6.2 mi WSW 10.4 mph - N/A   Mostly Cloudy
3:30 PM 50.0 °F - 41.0 °F 71% 30.06 in 6.2 mi West 13.8 mph - N/A   Mostly Cloudy
4:00 PM 50.0 °F - 41.0 °F 71% 30.09 in 6.2 mi West 12.7 mph - N/A   Mostly Cloudy
4:30 PM 50.0 °F - 41.0 °F 71% 30.09 in 6.2 mi WSW 8.1 mph - N/A   Mostly Cloudy
5:30 PM 50.0 °F - 39.2 °F 66% 30.09 in 6.2 mi WSW 11.5 mph - N/A   Mostly Cloudy
6:00 PM 48.2 °F - 39.2 °F 71% 30.12 in 6.2 mi WSW 11.5 mph - N/A   Mostly Cloudy
6:30 PM 48.2 °F - 39.2 °F 71% 30.12 in 6.2 mi West 11.5 mph - N/A   Mostly Cloudy
7:00 PM 48.2 °F - 39.2 °F 71% 30.12 in 6.2 mi West 8.1 mph - N/A   Mostly Cloudy
7:30 PM 48.2 °F - 41.0 °F 76% 30.12 in 6.2 mi WSW 9.2 mph - N/A   Mostly Cloudy
8:00 PM 48 °F - 40 °F 67% 30.17 in 6 mi West 10.4 mph - -   Partly Cloudy
8:00 PM 48.2 °F - 41.0 °F 76% 30.15 in 6.2 mi West 10.4 mph - N/A   Mostly Cloudy
8:30 PM 48.2 °F - 41.0 °F 76% 30.15 in 6.2 mi West 8.1 mph - N/A   Mostly Cloudy
9:00 PM 48.2 °F - 41.0 °F 76% 30.15 in 6.2 mi WNW 11.5 mph - N/A   Mostly Cloudy
9:30 PM 48.2 °F - 41.0 °F 76% 30.15 in 6.2 mi West 6.9 mph - N/A   Mostly Cloudy
10:00 PM 48.2 °F - 41.0 °F 76% 30.15 in 6.2 mi WSW 8.1 mph - N/A   Mostly Cloudy
10:30 PM 48.2 °F - 41.0 °F 76% 30.15 in 6.2 mi SSW 6.9 mph - N/A   Mostly Cloudy
11:00 PM 48.2 °F - 41.0 °F 76% 30.15 in 6.2 mi SW 6.9 mph - N/A   Mostly Cloudy
11:30 PM 48.2 °F - 41.0 °F 76% 30.15 in 6.2 mi WSW 11.5 mph - N/A   Mostly Cloudy